sat.trackr.live / text

‹ back to catalog

STARLINK-34392

NORAD 64451 · 2025-130P

PAYLOAD ACTIVE UNKNOWN

§ Identity

Operator
Country
US
Launch date
2025-06-18
Launch site
AFETR
Launch vehicle
Mass (kg)
RCS (m²)

Purposes: comms

External: N2YO · Heavens-Above · Gunter

§ Orbital elements

Epoch: 2026-09-20T05:39:50.391360Z

Period
93.85 min
Inclination
53.1570°
Eccentricity
0.0001116
Mean motion
15.34390452 rev/d
Perigee alt
462.0 km
Apogee alt
463.5 km
Semi-major
6,840.9 km
B*
2.8485e-4
RAAN
263.1392°
Arg perigee
89.8246°
Mean anomaly
270.2885°
Rev number
7,051

§ Raw data

STARLINK-343921 64451U 25130P   26263.23599990  .00009257  00000+0  28485-3 0  99982 64451  53.1570 263.1392 0001116  89.8246 270.2885 15.34390452 70516

JSON: /api/v1/satellites/64451 · /tle

For live sub-satellite position, see the globe view (requires WebGL).

§ Visibility from observer

Set your observer location to see the next 7 days of passes ≥ 10°. The values pass through the URL so the page stays shareable.

No JS? Fill the form by hand. The geolocation button needs JavaScript.